Time,TemperatureF,DewpointF,PressureIn,WindDirection,WindDirectionDegrees,WindSpeedMPH,WindSpeedGustMPH,Humidity,HourlyPrecipIn,Conditions,Clouds,dailyrainin,SolarRadiationWatts/m^2,SoftwareType,DateUTC
2013-09-11 00:02:00,60.0,57.0,-100.00,ENE,68,4.0,5.0,89,0.02,,,0.04,56.000000,,2013-09-11 00:02:00,
2013-09-11 00:11:00,60.0,57.0,-100.00,ENE,68,4.0,5.0,89,0.02,,,0.04,56.000000,,2013-09-11 00:11:00,
2013-09-11 00:22:00,60.0,57.0,-100.00,ENE,68,4.0,5.0,89,0.02,,,0.04,56.000000,,2013-09-11 00:22:00,
2013-09-11 00:32:00,60.0,57.0,-100.00,ENE,68,4.0,5.0,89,0.02,,,0.04,56.000000,,2013-09-11 00:32:00,
2013-09-11 00:52:00,60.0,57.0,-100.00,ESE,106,4.0,6.0,90,0.01,,,0.05,30.000000,,2013-09-11 00:52:00,
2013-09-11 01:02:00,60.0,57.0,-100.00,ESE,106,4.0,6.0,90,0.01,,,0.05,30.000000,,2013-09-11 01:02:00,
2013-09-11 01:11:00,60.0,57.0,-100.00,ESE,106,4.0,6.0,90,0.01,,,0.05,30.000000,,2013-09-11 01:11:00,
2013-09-11 01:21:00,60.0,57.0,-100.00,ESE,106,4.0,6.0,90,0.01,,,0.05,30.000000,,2013-09-11 01:21:00,
2013-09-11 01:32:00,60.0,57.0,-100.00,ESE,106,4.0,6.0,90,0.01,,,0.05,30.000000,,2013-09-11 01:32:00,
2013-09-11 01:53:00,57.0,53.0,-100.00,SSE,162,4.0,7.0,88,0.01,,,0.06,5.000000,,2013-09-11 01:53:00,
2013-09-11 02:02:00,57.0,53.0,-100.00,SSE,162,4.0,7.0,88,0.01,,,0.06,5.000000,,2013-09-11 02:02:00,
2013-09-11 02:11:00,57.0,53.0,-100.00,SSE,162,4.0,7.0,88,0.01,,,0.06,5.000000,,2013-09-11 02:11:00,
2013-09-11 02:22:00,57.0,53.0,-100.00,SSE,162,4.0,7.0,88,0.01,,,0.06,5.000000,,2013-09-11 02:22:00,
2013-09-11 02:32:00,57.0,53.0,-100.00,SSE,162,4.0,7.0,88,0.01,,,0.06,5.000000,,2013-09-11 02:32:00,
2013-09-11 02:34:00,57.0,54.0,-100.00,NE,42,7.0,12.0,90,0.02,,,0.08,0.000000,,2013-09-11 02:34:00,
2013-09-11 02:52:00,57.0,54.0,-100.00,NE,42,7.0,12.0,90,0.02,,,0.08,0.000000,,2013-09-11 02:52:00,
2013-09-11 03:02:00,57.0,54.0,-100.00,NE,42,7.0,12.0,90,0.02,,,0.08,0.000000,,2013-09-11 03:02:00,
2013-09-11 03:12:00,57.0,54.0,-100.00,NE,42,7.0,12.0,90,0.02,,,0.08,0.000000,,2013-09-11 03:12:00,
2013-09-11 03:22:00,57.0,54.0,-100.00,NE,42,7.0,12.0,90,0.02,,,0.08,0.000000,,2013-09-11 03:22:00,
2013-09-11 03:55:00,57.0,53.0,-100.00,West,271,2.0,10.0,87,0.02,,,0.10,0.000000,,2013-09-11 03:55:00,
2013-09-11 04:05:00,57.0,53.0,-100.00,West,271,2.0,10.0,87,0.02,,,0.10,0.000000,,2013-09-11 04:05:00,
2013-09-11 04:14:00,57.0,53.0,-100.00,West,271,2.0,10.0,87,0.02,,,0.10,0.000000,,2013-09-11 04:14:00,
2013-09-11 04:24:00,57.0,53.0,-100.00,West,271,2.0,10.0,87,0.02,,,0.10,0.000000,,2013-09-11 04:24:00,
2013-09-11 04:33:00,57.0,53.0,-100.00,West,271,2.0,10.0,87,0.02,,,0.10,0.000000,,2013-09-11 04:33:00,
2013-09-11 04:34:00,57.0,53.0,-100.00,NW,312,3.0,10.0,86,0.01,,,0.11,0.000000,,2013-09-11 04:34:00,
2013-09-11 04:54:00,57.0,53.0,-100.00,NW,312,3.0,10.0,86,0.01,,,0.11,0.000000,,2013-09-11 04:54:00,
2013-09-11 05:03:00,57.0,53.0,-100.00,NW,312,3.0,10.0,86,0.01,,,0.11,0.000000,,2013-09-11 05:03:00,
2013-09-11 05:13:00,57.0,53.0,-100.00,NW,312,3.0,10.0,86,0.01,,,0.11,0.000000,,2013-09-11 05:13:00,
2013-09-11 05:23:00,57.0,53.0,-100.00,NW,312,3.0,10.0,86,0.01,,,0.11,0.000000,,2013-09-11 05:23:00,
2013-09-11 05:53:00,57.0,51.0,-100.00,ENE,78,5.0,9.0,81,0.01,,,0.12,0.000000,,2013-09-11 05:53:00,
2013-09-11 06:02:00,57.0,51.0,-100.00,ENE,78,5.0,9.0,81,0.01,,,0.12,0.000000,,2013-09-11 06:02:00,
2013-09-11 06:12:00,57.0,51.0,-100.00,ENE,78,5.0,9.0,81,0.01,,,0.12,0.000000,,2013-09-11 06:12:00,
2013-09-11 06:22:00,57.0,51.0,-100.00,ENE,78,5.0,9.0,81,0.01,,,0.12,0.000000,,2013-09-11 06:22:00,
2013-09-11 06:32:00,57.0,51.0,-100.00,ENE,78,5.0,9.0,81,0.01,,,0.12,0.000000,,2013-09-11 06:32:00,
2013-09-11 06:52:00,57.0,53.0,-100.00,West,269,3.0,11.0,85,0.01,,,0.13,0.000000,,2013-09-11 06:52:00,
2013-09-11 07:02:00,57.0,53.0,-100.00,West,269,3.0,11.0,85,0.01,,,0.13,0.000000,,2013-09-11 07:02:00,
2013-09-11 07:12:00,57.0,53.0,-100.00,West,269,3.0,11.0,85,0.01,,,0.13,0.000000,,2013-09-11 07:12:00,
2013-09-11 07:23:00,57.0,53.0,-100.00,West,269,3.0,11.0,85,0.01,,,0.13,0.000000,,2013-09-11 07:23:00,
2013-09-11 07:32:00,57.0,53.0,-100.00,West,269,3.0,11.0,85,0.01,,,0.13,0.000000,,2013-09-11 07:32:00,
2013-09-11 07:53:00,56.0,54.0,-100.00,SW,218,2.0,8.0,93,0.03,,,0.16,0.000000,,2013-09-11 07:53:00,
2013-09-11 08:02:00,56.0,54.0,-100.00,SW,218,2.0,8.0,93,0.03,,,0.16,0.000000,,2013-09-11 08:02:00,
2013-09-11 08:12:00,56.0,54.0,-100.00,SW,218,2.0,8.0,93,0.03,,,0.16,0.000000,,2013-09-11 08:12:00,
2013-09-11 08:22:00,56.0,54.0,-100.00,SW,218,2.0,8.0,93,0.03,,,0.16,0.000000,,2013-09-11 08:22:00,
2013-09-11 08:32:00,56.0,54.0,-100.00,SW,218,2.0,8.0,93,0.03,,,0.16,0.000000,,2013-09-11 08:32:00,
2013-09-11 08:52:00,55.0,53.0,-100.00,WNW,297,1.0,5.0,94,0.06,,,0.22,0.000000,,2013-09-11 08:52:00,
2013-09-11 09:02:00,55.0,53.0,-100.00,WNW,297,1.0,5.0,94,0.06,,,0.22,0.000000,,2013-09-11 09:02:00,
2013-09-11 09:12:00,55.0,53.0,-100.00,WNW,297,1.0,5.0,94,0.06,,,0.22,0.000000,,2013-09-11 09:12:00,
2013-09-11 09:21:00,55.0,53.0,-100.00,WNW,297,1.0,5.0,94,0.06,,,0.22,0.000000,,2013-09-11 09:21:00,
2013-09-11 09:33:00,55.0,53.0,-100.00,WNW,297,1.0,5.0,94,0.06,,,0.22,0.000000,,2013-09-11 09:33:00,
2013-09-11 09:53:00,56.0,54.0,-100.00,SSW,194,3.0,5.0,94,0.00,,,0.22,0.000000,,2013-09-11 09:53:00,
2013-09-11 10:03:00,56.0,54.0,-100.00,SSW,194,3.0,5.0,94,0.00,,,0.22,0.000000,,2013-09-11 10:03:00,
2013-09-11 10:13:00,56.0,54.0,-100.00,SSW,194,3.0,5.0,94,0.00,,,0.22,0.000000,,2013-09-11 10:13:00,
2013-09-11 10:23:00,56.0,54.0,-100.00,SSW,194,3.0,5.0,94,0.00,,,0.22,0.000000,,2013-09-11 10:23:00,
2013-09-11 10:33:00,56.0,54.0,-100.00,SSW,194,3.0,5.0,94,0.00,,,0.22,0.000000,,2013-09-11 10:33:00,
2013-09-11 10:53:00,55.0,54.0,-100.00,SSE,158,3.0,5.0,96,0.00,,,0.22,0.000000,,2013-09-11 10:53:00,
2013-09-11 11:03:00,55.0,54.0,-100.00,SSE,158,3.0,5.0,96,0.00,,,0.22,0.000000,,2013-09-11 11:03:00,
2013-09-11 11:12:00,55.0,54.0,-100.00,SSE,158,3.0,5.0,96,0.00,,,0.22,0.000000,,2013-09-11 11:12:00,
2013-09-11 11:21:00,55.0,54.0,-100.00,SSE,158,3.0,5.0,96,0.00,,,0.22,0.000000,,2013-09-11 11:21:00,
2013-09-11 11:33:00,55.0,54.0,-100.00,SSE,158,3.0,5.0,96,0.00,,,0.22,0.000000,,2013-09-11 11:33:00,
2013-09-11 11:52:00,55.0,54.0,-100.00,SW,223,3.0,5.0,96,0.06,,,-99.99,0.000000,,2013-09-11 11:52:00,
2013-09-11 12:01:00,55.0,54.0,-100.00,SW,223,3.0,5.0,96,0.06,,,-99.99,0.000000,,2013-09-11 12:01:00,
2013-09-11 12:11:00,55.0,54.0,-100.00,SW,223,3.0,5.0,96,0.06,,,-99.99,0.000000,,2013-09-11 12:11:00,
2013-09-11 12:21:00,55.0,54.0,-100.00,SW,223,3.0,5.0,96,0.06,,,-99.99,0.000000,,2013-09-11 12:21:00,
2013-09-11 12:32:00,55.0,54.0,-100.00,SW,223,3.0,5.0,96,0.06,,,-99.99,0.000000,,2013-09-11 12:32:00,
2013-09-11 13:12:00,55.0,54.0,-100.00,NW,323,2.0,4.0,96,0.10,,,-99.99,0.000000,,2013-09-11 13:12:00,
2013-09-11 13:22:00,55.0,54.0,-100.00,NW,323,2.0,4.0,96,0.10,,,-99.99,0.000000,,2013-09-11 13:22:00,
2013-09-11 13:32:00,55.0,54.0,-100.00,NW,323,2.0,4.0,96,0.10,,,-99.99,0.000000,,2013-09-11 13:32:00,
2013-09-11 13:52:00,55.0,54.0,-100.00,SW,229,4.0,8.0,97,0.17,,,0.55,10.000000,,2013-09-11 13:52:00,
2013-09-11 14:02:00,55.0,54.0,-100.00,SW,229,4.0,8.0,97,0.17,,,0.55,10.000000,,2013-09-11 14:02:00,
2013-09-11 14:11:00,55.0,54.0,-100.00,SW,229,4.0,8.0,97,0.17,,,0.55,10.000000,,2013-09-11 14:11:00,
2013-09-11 14:22:00,55.0,54.0,-100.00,SW,229,4.0,8.0,97,0.17,,,0.55,10.000000,,2013-09-11 14:22:00,
2013-09-11 14:32:00,55.0,54.0,-100.00,SW,229,4.0,8.0,97,0.17,,,0.55,10.000000,,2013-09-11 14:32:00,
2013-09-11 14:52:00,58.0,57.0,-100.00,North,359,3.0,9.0,96,0.01,,,0.56,89.000000,,2013-09-11 14:52:00,
2013-09-11 15:02:00,58.0,57.0,-100.00,North,359,3.0,9.0,96,0.01,,,0.56,89.000000,,2013-09-11 15:02:00,
2013-09-11 15:11:00,58.0,57.0,-100.00,North,359,3.0,9.0,96,0.01,,,0.56,89.000000,,2013-09-11 15:11:00,
2013-09-11 15:22:00,58.0,57.0,-100.00,North,359,3.0,9.0,96,0.01,,,0.56,89.000000,,2013-09-11 15:22:00,
2013-09-11 15:33:00,58.0,57.0,-100.00,North,359,3.0,9.0,96,0.01,,,0.56,89.000000,,2013-09-11 15:33:00,
2013-09-11 15:54:00,61.0,56.0,-100.00,NNW,348,3.0,6.0,85,0.00,,,0.56,260.000000,,2013-09-11 15:54:00,
2013-09-11 16:03:00,61.0,56.0,-100.00,NNW,348,3.0,6.0,85,0.00,,,0.56,260.000000,,2013-09-11 16:03:00,
2013-09-11 16:13:00,61.0,56.0,-100.00,NNW,348,3.0,6.0,85,0.00,,,0.56,260.000000,,2013-09-11 16:13:00,
2013-09-11 16:23:00,61.0,56.0,-100.00,NNW,348,3.0,6.0,85,0.00,,,0.56,260.000000,,2013-09-11 16:23:00,
2013-09-11 16:33:00,61.0,56.0,-100.00,NNW,348,3.0,6.0,85,0.00,,,0.56,260.000000,,2013-09-11 16:33:00,
2013-09-11 16:34:00,63.0,56.0,-100.00,SW,233,3.0,5.0,77,0.00,,,0.56,301.000000,,2013-09-11 16:34:00,
2013-09-11 16:53:00,63.0,56.0,-100.00,SW,233,3.0,5.0,77,0.00,,,0.56,301.000000,,2013-09-11 16:53:00,
2013-09-11 17:03:00,63.0,56.0,-100.00,SW,233,3.0,5.0,77,0.00,,,0.56,301.000000,,2013-09-11 17:03:00,
2013-09-11 17:12:00,63.0,56.0,-100.00,SW,233,3.0,5.0,77,0.00,,,0.56,301.000000,,2013-09-11 17:12:00,
2013-09-11 17:23:00,63.0,56.0,-100.00,SW,233,3.0,5.0,77,0.00,,,0.56,301.000000,,2013-09-11 17:23:00,
2013-09-11 17:52:00,66.0,57.0,-100.00,SSW,213,4.0,6.0,72,0.00,,,0.56,366.000000,,2013-09-11 17:52:00,
2013-09-11 18:02:00,66.0,57.0,-100.00,SSW,213,4.0,6.0,72,0.00,,,0.56,366.000000,,2013-09-11 18:02:00,
2013-09-11 18:12:00,66.0,57.0,-100.00,SSW,213,4.0,6.0,72,0.00,,,0.56,366.000000,,2013-09-11 18:12:00,
2013-09-11 18:22:00,66.0,57.0,-100.00,SSW,213,4.0,6.0,72,0.00,,,0.56,366.000000,,2013-09-11 18:22:00,
2013-09-11 18:32:00,66.0,57.0,-100.00,SSW,213,4.0,6.0,72,0.00,,,0.56,366.000000,,2013-09-11 18:32:00,
2013-09-11 18:52:00,66.0,55.0,-100.00,SSW,211,5.0,9.0,68,0.00,,,0.56,330.000000,,2013-09-11 18:52:00,
2013-09-11 19:01:00,66.0,55.0,-100.00,SSW,211,5.0,9.0,68,0.00,,,0.56,330.000000,,2013-09-11 19:01:00,
2013-09-11 19:11:00,66.0,55.0,-100.00,SSW,211,5.0,9.0,68,0.00,,,0.56,330.000000,,2013-09-11 19:11:00,
2013-09-11 19:22:00,66.0,55.0,-100.00,SSW,211,5.0,9.0,68,0.00,,,0.56,330.000000,,2013-09-11 19:22:00,
2013-09-11 19:32:00,66.0,55.0,-100.00,SSW,211,5.0,9.0,68,0.00,,,0.56,330.000000,,2013-09-11 19:32:00,
2013-09-11 19:53:00,72.0,58.0,-100.00,WSW,254,4.0,9.0,61,0.00,,,0.56,673.000000,,2013-09-11 19:53:00,
2013-09-11 20:02:00,72.0,58.0,-100.00,WSW,254,4.0,9.0,61,0.00,,,0.56,673.000000,,2013-09-11 20:02:00,
2013-09-11 20:12:00,72.0,58.0,-100.00,WSW,254,4.0,9.0,61,0.00,,,0.56,673.000000,,2013-09-11 20:12:00,
2013-09-11 20:22:00,72.0,58.0,-100.00,WSW,254,4.0,9.0,61,0.00,,,0.56,673.000000,,2013-09-11 20:22:00,
2013-09-11 20:32:00,72.0,58.0,-100.00,WSW,254,4.0,9.0,61,0.00,,,0.56,673.000000,,2013-09-11 20:32:00,
2013-09-11 20:34:00,73.0,54.0,-100.00,West,274,4.0,9.0,52,0.00,,,0.56,742.000000,,2013-09-11 20:34:00,
2013-09-11 20:52:00,73.0,54.0,-100.00,West,274,4.0,9.0,52,0.00,,,0.56,742.000000,,2013-09-11 20:52:00,
2013-09-11 21:02:00,73.0,54.0,-100.00,West,274,4.0,9.0,52,0.00,,,0.56,742.000000,,2013-09-11 21:02:00,
2013-09-11 21:12:00,73.0,54.0,-100.00,West,274,4.0,9.0,52,0.00,,,0.56,742.000000,,2013-09-11 21:12:00,
2013-09-11 21:22:00,73.0,54.0,-100.00,West,274,4.0,9.0,52,0.00,,,0.56,742.000000,,2013-09-11 21:22:00,
2013-09-11 21:54:00,78.0,57.0,-100.00,West,279,5.0,9.0,48,0.00,,,0.56,797.000000,,2013-09-11 21:54:00,
2013-09-11 22:04:00,78.0,57.0,-100.00,West,279,5.0,9.0,48,0.00,,,0.56,797.000000,,2013-09-11 22:04:00,
2013-09-11 22:34:00,74.0,53.0,-100.00,ESE,104,8.0,20.0,48,0.00,,,0.54,396.000000,,2013-09-11 22:34:00,
2013-09-11 22:54:00,74.0,53.0,-100.00,ESE,104,8.0,20.0,48,0.00,,,0.54,396.000000,,2013-09-11 22:54:00,
2013-09-11 23:03:00,74.0,53.0,-100.00,ESE,104,8.0,20.0,48,0.00,,,0.54,396.000000,,2013-09-11 23:03:00,
2013-09-11 23:12:00,74.0,53.0,-100.00,ESE,104,8.0,20.0,48,0.00,,,0.54,396.000000,,2013-09-11 23:12:00,
2013-09-11 23:22:00,74.0,53.0,-100.00,ESE,104,8.0,20.0,48,0.00,,,0.54,396.000000,,2013-09-11 23:22:00,
2013-09-11 23:53:00,75.0,57.0,-100.00,East,100,10.0,16.0,54,0.00,,,0.52,304.000000,,2013-09-11 23:53:00,